User: anonymous   Login
Location: Cimarron National Grasslands
(37.1250°N, 101.7500°W)
Time: 10:41:06
(UTC-05:00)
Language:

Ariane Rocket - Orbit

View from above orbital plane
View from above orbital plane
View from above satellite
View from above satellite

Ground track
Ground track

The orbit data is extracted from the following two-line orbital elements,

1 23561U 95021B   15085.84634039  .00000460  00000-0  16872-3 0  9997
2 23561 098.7221 060.2925 0007651 139.4026 278.4583 14.37531284 44380
Epoch (UTC): 26 March 2015 20:18:43
Eccentricity: 0.0007651
inclination: 98.7221°
perigee height: 761 km
apogee height: 772 km
right ascension of ascending node: 60.2925°
argument of perigee: 139.4026°
revolutions per day: 14.37531284
mean anomaly at epoch: 278.4583°
orbit number at epoch: 4438

The dashed part of the orbit path shows where the satellite is in the earth's shadow,  

DLR